This is the latest recevied weather packets stored in our database for station/object SP6PGH-13. If no packets are shown the sender has not sent any weather packets the latest 10 day(s).
| Time | Temp. | Humidity | Pressure | Rain* | Wind** | Luminosity | Snow |
|---|---|---|---|---|---|---|---|
| 1777478128 | 10.56° C | 31% | 1014.6 hPa | - | - | 164 W/m² | - |
| 1777477227 | 10.56° C | 32% | 1014.6 hPa | - | - | 91 W/m² | - |
| 1777476327 | 10° C | 30% | 1014.5 hPa | - | - | 293 W/m² | - |
| 1777475425 | 10° C | 29% | 1014.6 hPa | - | - | 86 W/m² | - |
| 1777474524 | 10.56° C | 29% | 1014.6 hPa | - | - | 327 W/m² | - |
| 1777473624 | 11.11° C | 29% | 1014.6 hPa | - | - | 372 W/m² | - |
| 1777472722 | 10.56° C | 30% | 1014.6 hPa | - | - | 99 W/m² | - |
| 1777471822 | 11.67° C | 28% | 1014.6 hPa | - | - | 241 W/m² | - |
| 1777470920 | 10° C | 31% | 1014.5 hPa | - | - | 495 W/m² | - |
| 1777470020 | 10.56° C | 26% | 1014.4 hPa | - | - | 626 W/m² | - |
| 1777469119 | 11.11° C | 27% | 1014.3 hPa | - | - | 664 W/m² | - |
| 1777468217 | 10.56° C | 27% | 1014.3 hPa | - | - | 594 W/m² | - |
| 1777467316 | 11.11° C | 27% | 1014.4 hPa | - | - | 293 W/m² | - |
| 1777466416 | 10.56° C | 28% | 1014.5 hPa | - | - | 645 W/m² | - |
| 1777465515 | 10.56° C | 28% | 1014.5 hPa | - | - | 697 W/m² | - |
| 1777464613 | 11.67° C | 27% | 1014.5 hPa | - | - | 721 W/m² | - |
| 1777463712 | 11.11° C | 28% | 1014.5 hPa | - | - | 702 W/m² | - |
| 1777462811 | 11.11° C | 27% | 1014.5 hPa | - | - | 696 W/m² | - |
| 1777461910 | 11.11° C | 23% | 1014.4 hPa | - | - | 710 W/m² | - |
| 1777461009 | 10° C | 25% | 1014.6 hPa | - | - | 718 W/m² | - |
| 1777460108 | 10.56° C | 25% | 1014.5 hPa | - | - | 723 W/m² | - |
| 1777459207 | 10° C | 25% | 1014.5 hPa | - | - | 721 W/m² | - |
| 1777458306 | 10° C | 28% | 1014.7 hPa | - | - | 709 W/m² | - |
| 1777457406 | 10.56° C | 29% | 1014.6 hPa | - | - | 701 W/m² | - |
| 1777456504 | 9.44° C | 30% | 1014.7 hPa | - | - | 702 W/m² | - |
* Rain since midnight (hover to see other rain measurements)
** Current wind speed in m/s (hover to see current wind gust speed)